Torna al catalogo

STARLINK-3900

AttivoComunicazioniVLEO
NORAD 52461·PAYLOAD·🇺🇸 United States

Lanciato May 6, 2022 da Cape Canaveral Space Force Station

Loading…

Prossimi Passaggi (prossime 24 ore)

TLE

AggiornatoSource: CelesTrak SupGP

Epoca: Sep 15, 2026, 01:17 UTC

1 52461C 22049L   26258.05395833  .00009717  00000+0  29464-3 0  2583
2 52461  53.1571 269.4427 0001297  91.9930 192.0931 15.33567162    11

Traccia STARLINK-3900 in tempo reale con AllMySat

Download on the App Store